Time,TemperatureF,DewpointF,PressureIn,WindDirection,WindDirectionDegrees,WindSpeedMPH,WindSpeedGustMPH,Humidity,HourlyPrecipIn,Conditions,Clouds,dailyrainin,SolarRadiationWatts/m^2,SoftwareType,DateUTC
2013-03-22 00:07:00,45.5,37.0,29.94,West,279,0.0,-999.0,71,-99.99,,,0.00,0,weatherlink.com 1.10,2013-03-22 04:07:00,
2013-03-22 00:22:00,44.6,37.0,29.94,West,279,0.0,-999.0,74,-99.99,,,0.00,0,weatherlink.com 1.10,2013-03-22 04:22:00,
2013-03-22 00:37:00,43.9,37.0,29.94,West,279,0.0,-999.0,76,-99.99,,,0.00,0,weatherlink.com 1.10,2013-03-22 04:37:00,
2013-03-22 00:52:00,43.6,37.0,29.93,West,279,0.0,-999.0,78,-99.99,,,0.00,0,weatherlink.com 1.10,2013-03-22 04:52:00,
2013-03-22 01:07:00,43.8,38.0,29.93,West,279,0.0,-999.0,81,-99.99,,,0.00,0,weatherlink.com 1.10,2013-03-22 05:07:00,
2013-03-22 01:23:00,43.9,39.0,29.93,West,279,0.0,-999.0,84,-99.99,,,0.00,0,weatherlink.com 1.10,2013-03-22 05:23:00,
2013-03-22 01:37:00,43.3,39.0,29.93,West,279,0.0,-999.0,85,-99.99,,,0.00,0,weatherlink.com 1.10,2013-03-22 05:37:00,
2013-03-22 01:52:00,42.8,39.0,29.93,West,279,0.0,-999.0,85,-99.99,,,0.00,0,weatherlink.com 1.10,2013-03-22 05:52:00,
2013-03-22 02:07:00,42.3,38.0,29.93,West,279,0.0,-999.0,86,-99.99,,,0.00,0,weatherlink.com 1.10,2013-03-22 06:07:00,
2013-03-22 02:22:00,41.6,38.0,29.93,West,279,0.0,-999.0,86,-99.99,,,0.00,0,weatherlink.com 1.10,2013-03-22 06:22:00,
2013-03-22 02:37:00,41.3,37.0,29.93,West,279,0.0,-999.0,86,-99.99,,,0.00,0,weatherlink.com 1.10,2013-03-22 06:37:00,
2013-03-22 02:52:00,41.1,38.0,29.93,West,279,0.0,-999.0,87,-99.99,,,0.00,0,weatherlink.com 1.10,2013-03-22 06:52:00,
2013-03-22 03:07:00,40.8,38.0,29.92,West,279,0.0,-999.0,89,-99.99,,,0.00,0,weatherlink.com 1.10,2013-03-22 07:07:00,
2013-03-22 03:22:00,40.8,38.0,29.91,West,279,0.0,-999.0,90,-99.99,,,0.00,0,weatherlink.com 1.10,2013-03-22 07:22:00,
2013-03-22 03:37:00,40.8,38.0,29.91,West,279,0.0,-999.0,91,-99.99,,,0.00,0,weatherlink.com 1.10,2013-03-22 07:37:00,
2013-03-22 03:52:00,41.2,39.0,29.91,West,279,0.0,-999.0,92,-99.99,,,0.00,0,weatherlink.com 1.10,2013-03-22 07:52:00,
2013-03-22 04:07:00,41.1,39.0,29.91,West,279,0.0,-999.0,92,-99.99,,,0.00,0,weatherlink.com 1.10,2013-03-22 08:07:00,
2013-03-22 04:22:00,40.8,39.0,29.92,West,279,0.0,-999.0,92,-99.99,,,0.00,0,weatherlink.com 1.10,2013-03-22 08:22:00,
2013-03-22 04:37:00,40.1,38.0,29.91,West,279,0.0,-999.0,91,-99.99,,,0.00,0,weatherlink.com 1.10,2013-03-22 08:37:00,
2013-03-22 04:52:00,39.9,38.0,29.91,West,279,0.0,-999.0,93,-99.99,,,0.00,0,weatherlink.com 1.10,2013-03-22 08:52:00,
2013-03-22 05:07:00,40.8,40.0,29.91,West,279,0.0,-999.0,96,-99.99,,,0.00,0,weatherlink.com 1.10,2013-03-22 09:07:00,
2013-03-22 05:22:00,42.1,41.0,29.92,West,279,0.0,-999.0,96,-99.99,,,0.00,0,weatherlink.com 1.10,2013-03-22 09:22:00,
2013-03-22 05:37:00,42.3,42.0,29.93,West,279,0.0,-999.0,97,-99.99,,,0.00,0,weatherlink.com 1.10,2013-03-22 09:37:00,
2013-03-22 05:52:00,42.1,41.0,29.93,West,279,0.0,-999.0,97,-99.99,,,0.00,0,weatherlink.com 1.10,2013-03-22 09:52:00,
2013-03-22 06:07:00,42.3,42.0,29.93,West,279,0.0,-999.0,99,-99.99,,,0.00,0,weatherlink.com 1.10,2013-03-22 10:07:00,
2013-03-22 06:22:00,43.1,43.0,29.95,West,279,0.0,-999.0,98,-99.99,,,0.00,0,weatherlink.com 1.10,2013-03-22 10:22:00,
2013-03-22 06:37:00,42.2,42.0,29.95,West,279,0.0,-999.0,99,-99.99,,,0.00,0,weatherlink.com 1.10,2013-03-22 10:37:00,
2013-03-22 06:52:00,42.5,42.0,29.95,West,279,0.0,-999.0,99,-99.99,,,0.00,0,weatherlink.com 1.10,2013-03-22 10:52:00,
2013-03-22 07:07:00,42.3,42.0,29.96,West,279,0.0,-999.0,99,-99.99,,,0.00,0,weatherlink.com 1.10,2013-03-22 11:07:00,
2013-03-22 07:22:00,42.3,42.0,29.96,West,279,0.0,-999.0,100,-99.99,,,0.00,0,weatherlink.com 1.10,2013-03-22 11:22:00,
2013-03-22 07:37:00,43.6,44.0,29.97,West,279,0.0,-999.0,100,-99.99,,,0.00,9,weatherlink.com 1.10,2013-03-22 11:37:00,
2013-03-22 07:52:00,44.1,44.0,29.96,West,279,0.0,-999.0,100,-99.99,,,0.00,19,weatherlink.com 1.10,2013-03-22 11:52:00,
2013-03-22 08:07:00,44.5,45.0,29.98,West,281,0.0,-999.0,100,-99.99,,,0.00,28,weatherlink.com 1.10,2013-03-22 12:07:00,
2013-03-22 08:22:00,45.2,45.0,29.98,WNW,283,0.0,-999.0,100,-99.99,,,0.00,113,weatherlink.com 1.10,2013-03-22 12:22:00,
2013-03-22 08:37:00,46.8,47.0,29.98,NNE,24,1.0,-999.0,100,-99.99,,,0.00,176,weatherlink.com 1.10,2013-03-22 12:37:00,
2013-03-22 08:52:00,48.3,48.0,29.98,NE,38,5.0,-999.0,99,-99.99,,,0.00,100,weatherlink.com 1.10,2013-03-22 12:52:00,
2013-03-22 09:07:00,50.1,49.0,29.99,ENE,76,2.0,-999.0,95,-99.99,,,0.00,269,weatherlink.com 1.10,2013-03-22 13:07:00,
2013-03-22 09:22:00,52.6,49.0,29.99,NNE,23,1.0,-999.0,88,-99.99,,,0.00,388,weatherlink.com 1.10,2013-03-22 13:22:00,
2013-03-22 09:37:00,54.4,49.0,29.99,East,88,3.0,-999.0,81,-99.99,,,0.00,223,weatherlink.com 1.10,2013-03-22 13:37:00,
2013-03-22 09:52:00,58.7,46.0,29.99,ENE,57,7.0,-999.0,63,-99.99,,,0.00,438,weatherlink.com 1.10,2013-03-22 13:52:00,
2013-03-22 10:07:00,60.7,45.0,30.00,ESE,107,5.0,-999.0,56,-99.99,,,0.00,396,weatherlink.com 1.10,2013-03-22 14:07:00,
2013-03-22 10:22:00,62.1,44.0,30.00,East,83,3.0,-999.0,52,-99.99,,,0.00,329,weatherlink.com 1.10,2013-03-22 14:22:00,
2013-03-22 10:37:00,63.2,45.0,30.00,ENE,62,4.0,-999.0,52,-99.99,,,0.00,418,weatherlink.com 1.10,2013-03-22 14:37:00,
2013-03-22 10:52:00,64.3,43.0,30.00,East,96,4.0,-999.0,47,-99.99,,,0.00,431,weatherlink.com 1.10,2013-03-22 14:52:00,
2013-03-22 11:07:00,65.5,44.0,30.00,ENE,57,5.0,-999.0,46,-99.99,,,0.00,786,weatherlink.com 1.10,2013-03-22 15:07:00,
2013-03-22 11:22:00,67.1,44.0,29.98,East,87,5.0,-999.0,43,-99.99,,,0.00,348,weatherlink.com 1.10,2013-03-22 15:22:00,
2013-03-22 11:37:00,68.4,45.0,29.98,ENE,76,3.0,-999.0,43,-99.99,,,0.00,863,weatherlink.com 1.10,2013-03-22 15:37:00,
2013-03-22 11:52:00,69.9,47.0,29.97,ENE,74,0.0,-999.0,44,-99.99,,,0.00,932,weatherlink.com 1.10,2013-03-22 15:52:00,
2013-03-22 12:07:00,71.8,48.0,29.98,SSE,164,9.0,-999.0,43,-99.99,,,0.00,932,weatherlink.com 1.10,2013-03-22 16:07:00,
2013-03-22 12:22:00,71.8,50.0,29.97,SSE,152,1.0,-999.0,47,-99.99,,,0.00,550,weatherlink.com 1.10,2013-03-22 16:22:00,
2013-03-22 12:37:00,72.0,51.0,29.98,SSE,153,8.0,-999.0,48,-99.99,,,0.00,563,weatherlink.com 1.10,2013-03-22 16:37:00,
2013-03-22 12:52:00,72.8,52.0,29.97,SSW,198,6.0,-999.0,48,-99.99,,,0.00,1030,weatherlink.com 1.10,2013-03-22 16:52:00,
2013-03-22 13:07:00,74.0,55.0,29.96,South,186,2.0,-999.0,51,-99.99,,,0.00,831,weatherlink.com 1.10,2013-03-22 17:07:00,
2013-03-22 13:22:00,75.1,54.0,29.96,SSW,193,5.0,-999.0,48,-99.99,,,0.00,967,weatherlink.com 1.10,2013-03-22 17:22:00,
2013-03-22 13:37:00,75.8,56.0,29.94,SW,215,6.0,-999.0,51,-99.99,,,0.00,1014,weatherlink.com 1.10,2013-03-22 17:37:00,
2013-03-22 13:52:00,76.5,56.0,29.94,SSE,157,10.0,-999.0,50,-99.99,,,0.00,937,weatherlink.com 1.10,2013-03-22 17:52:00,
2013-03-22 14:07:00,76.7,57.0,29.93,SSE,167,13.0,-999.0,51,-99.99,,,0.00,1049,weatherlink.com 1.10,2013-03-22 18:07:00,
2013-03-22 14:22:00,77.6,58.0,29.93,SW,220,3.0,-999.0,52,-99.99,,,0.00,976,weatherlink.com 1.10,2013-03-22 18:22:00,
2013-03-22 14:37:00,77.0,58.0,29.91,SSE,157,8.0,-999.0,52,-99.99,,,0.00,1118,weatherlink.com 1.10,2013-03-22 18:37:00,
2013-03-22 14:52:00,77.4,58.0,29.90,SSE,166,7.0,-999.0,51,-99.99,,,0.00,842,weatherlink.com 1.10,2013-03-22 18:52:00,
2013-03-22 15:07:00,77.4,58.0,29.89,South,187,6.0,-999.0,52,-99.99,,,0.00,346,weatherlink.com 1.10,2013-03-22 19:07:00,
2013-03-22 15:22:00,75.6,61.0,29.89,SSW,194,6.0,-999.0,61,-99.99,,,0.00,332,weatherlink.com 1.10,2013-03-22 19:22:00,
2013-03-22 15:37:00,75.1,62.0,29.89,SSE,159,4.0,-999.0,63,-99.99,,,0.00,188,weatherlink.com 1.10,2013-03-22 19:37:00,
2013-03-22 15:52:00,75.6,63.0,29.88,SSW,195,5.0,-999.0,64,-99.99,,,0.00,169,weatherlink.com 1.10,2013-03-22 19:52:00,
2013-03-22 16:07:00,74.7,63.0,29.87,SSW,210,7.0,-999.0,66,-99.99,,,0.00,40,weatherlink.com 1.10,2013-03-22 20:07:00,
2013-03-22 16:22:00,74.0,63.0,29.87,SSW,198,2.0,-999.0,69,-99.99,,,0.00,63,weatherlink.com 1.10,2013-03-22 20:22:00,
2013-03-22 16:37:00,74.0,63.0,29.88,SW,223,0.0,-999.0,69,-99.99,,,0.00,83,weatherlink.com 1.10,2013-03-22 20:37:00,
2013-03-22 16:52:00,73.5,64.0,29.89,WSW,243,2.0,-999.0,72,-99.99,,,0.02,39,weatherlink.com 1.10,2013-03-22 20:52:00,
2013-03-22 17:10:00,69.8,66.0,29.88,South,179,0.0,-999.0,87,-99.99,,,0.11,47,weatherlink.com 1.10,2013-03-22 21:10:00,
2013-03-22 17:22:00,68.9,66.0,29.89,South,179,0.0,-999.0,91,-99.99,,,0.14,39,weatherlink.com 1.10,2013-03-22 21:22:00,
2013-03-22 17:37:00,68.4,67.0,29.88,South,179,0.0,-999.0,94,-99.99,,,0.14,65,weatherlink.com 1.10,2013-03-22 21:37:00,
2013-03-22 17:52:00,68.9,68.0,29.89,South,179,0.0,-999.0,96,-99.99,,,0.14,47,weatherlink.com 1.10,2013-03-22 21:52:00,
2013-03-22 18:09:00,68.9,68.0,29.89,ESE,105,0.0,-999.0,96,-99.99,,,0.14,26,weatherlink.com 1.10,2013-03-22 22:09:00,
2013-03-22 18:22:00,68.3,68.0,29.90,East,94,0.0,-999.0,97,-99.99,,,0.14,25,weatherlink.com 1.10,2013-03-22 22:22:00,
2013-03-22 18:37:00,68.1,67.0,29.90,NE,36,0.0,-999.0,97,-99.99,,,0.14,53,weatherlink.com 1.10,2013-03-22 22:37:00,
2013-03-22 18:54:00,67.9,67.0,29.90,East,79,0.0,-999.0,97,-99.99,,,0.14,54,weatherlink.com 1.10,2013-03-22 22:54:00,
2013-03-22 19:07:00,67.8,67.0,29.90,NE,54,1.0,-999.0,97,-99.99,,,0.14,35,weatherlink.com 1.10,2013-03-22 23:07:00,
2013-03-22 19:22:00,67.4,67.0,29.91,ENE,61,0.0,-999.0,97,-99.99,,,0.14,7,weatherlink.com 1.10,2013-03-22 23:22:00,
2013-03-22 19:37:00,67.1,66.0,29.91,ENE,61,0.0,-999.0,97,-99.99,,,0.14,0,weatherlink.com 1.10,2013-03-22 23:37:00,
2013-03-22 19:52:00,66.8,66.0,29.92,ENE,61,0.0,-999.0,97,-99.99,,,0.14,0,weatherlink.com 1.10,2013-03-22 23:52:00,
2013-03-22 20:07:00,66.6,66.0,29.92,ENE,61,0.0,-999.0,97,-99.99,,,0.14,0,weatherlink.com 1.10,2013-03-23 00:07:00,
2013-03-22 20:22:00,66.4,66.0,29.93,SE,140,0.0,-999.0,97,-99.99,,,0.14,0,weatherlink.com 1.10,2013-03-23 00:22:00,
2013-03-22 20:37:00,66.3,66.0,29.93,East,98,0.0,-999.0,98,-99.99,,,0.16,0,weatherlink.com 1.10,2013-03-23 00:37:00,
2013-03-22 21:10:00,65.8,65.0,29.93,East,82,5.0,-999.0,98,-99.99,,,0.18,0,weatherlink.com 1.10,2013-03-23 01:10:00,
2013-03-22 21:22:00,65.6,65.0,29.93,NE,49,0.0,-999.0,99,-99.99,,,0.18,0,weatherlink.com 1.10,2013-03-23 01:22:00,
2013-03-22 21:37:00,65.5,65.0,29.95,ENE,62,2.0,-999.0,99,-99.99,,,0.19,0,weatherlink.com 1.10,2013-03-23 01:37:00,
2013-03-22 21:52:00,65.2,65.0,29.95,ENE,59,4.0,-999.0,99,-99.99,,,0.23,0,weatherlink.com 1.10,2013-03-23 01:52:00,
2013-03-22 22:07:00,64.7,65.0,29.96,NNE,29,0.0,-999.0,100,-99.99,,,0.36,0,weatherlink.com 1.10,2013-03-23 02:07:00,
2013-03-22 22:23:00,64.3,64.0,29.94,NE,34,7.0,-999.0,100,-99.99,,,0.51,0,weatherlink.com 1.10,2013-03-23 02:23:00,
2013-03-22 22:37:00,63.7,64.0,29.95,NE,42,0.0,-999.0,100,-99.99,,,0.60,0,weatherlink.com 1.10,2013-03-23 02:37:00,
2013-03-22 22:52:00,63.1,63.0,29.97,NNE,24,3.0,-999.0,100,-99.99,,,0.78,0,weatherlink.com 1.10,2013-03-23 02:52:00,
2013-03-22 23:10:00,62.7,63.0,29.98,ENE,76,1.0,-999.0,100,-99.99,,,1.06,0,weatherlink.com 1.10,2013-03-23 03:10:00,
2013-03-22 23:22:00,62.9,63.0,29.98,NNE,32,0.0,-999.0,100,-99.99,,,1.08,0,weatherlink.com 1.10,2013-03-23 03:22:00,
2013-03-22 23:37:00,62.9,63.0,29.97,NNE,32,0.0,-999.0,100,-99.99,,,1.08,0,weatherlink.com 1.10,2013-03-23 03:37:00,
2013-03-22 23:55:00,63.2,63.0,29.97,NNE,32,1.0,-999.0,100,-99.99,,,1.08,0,weatherlink.com 1.10,2013-03-23 03:55:00,